Regional Weather Roundup
Issued by NWS Charleston, SC

Current Version | Previous Version | Graphics & Text | Print | Product List | Glossary On
Versions: 1 2 3 4 5 6 7 8 9 10 11 12 13 14 15 16 17 18 19 20 21 22 23 24 25 26 27 28 29 30 31 32 33 34 35 36 37 38 39 40 41 42 43 44 45 46 47 48 49 50
000
ASUS42 KCHS 061912
RWRCHS

REGIONAL WEATHER ROUNDUP
NATIONAL WEATHER SERVICE CHARLESTON SC
300 PM EDT WED MAY 06 2015

NOTE: "FAIR" INDICATES FEW OR NO CLOUDS BELOW 12,000 FEET WITH NO
SIGNIFICANT WEATHER AND/OR OBSTRUCTIONS TO VISIBILITY.

NOT ALL STATIONS ARE QUALITY CONTROLLED BY THE NATIONAL
WEATHER SERVICE. USE DATA WITH CAUTION...ESPECIALLY
DEWPOINT OBSERVATIONS.

SCZ027-030-031-034>040-042>050-062000-
...SOUTHEAST SOUTH CAROLINA...

CITY           SKY/WX    TMP DP  RH WIND       PRES   REMARKS
N CHARLESTON   PTSUNNY   78  57  48 NE12G17   30.12F
WATERFRONT PRK NOT AVBL
MOUNT PLEASANT FAIR      77  63  61 MISG      30.12F
PINOPOLIS      NOT AVBL
MONCKS CORNER  MOCLDY    79  55  44 E9G18     30.13S
SUMMERVILLE    FAIR      81  59  47 N7        30.13F
BEAUFORT MCAS  PTSUNNY   77  63  61 SE9G17    30.12S
BEAUFORT ARPT  CLOUDY    77  63  61 E12       30.11F
HILTON HEAD IS PTSUNNY   75  63  64 NE9G21    30.13F
WALTERBORO     NOT AVBL
ALLENDALE      FAIR      77  54  44 CALM      30.13F

...SOUTHERN MIDLANDS AND PEE DEE...

CITY           SKY/WX    TMP DP  RH WIND       PRES   REMARKS
GEORGETOWN     NOT AVBL
KINGSTREE      NOT AVBL
ORANGEBURG     PTSUNNY   80  49  33 NE9       30.13F
BARNWELL       MOCLDY    81  46  30 NE7       30.14F
AIKEN          FAIR      79  50  36 N8G17     30.17F
MANNING        MOCLDY    77  50  38 NE9G22    30.13F
COLUMBIA       PTSUNNY   83  49  30 E10       30.13F
SUMTER         MOSUNNY   84  43  23 NE15      30.12F
FLORENCE       MOSUNNY   82  46  28 E12G21    30.14F
MYRTLE BEACH   MOSUNNY   75  59  57 E18       30.17F
N MYRTLE BEACH PTSUNNY   76  57  51 E16G25    30.15F HAZE

$$

GAZ063-065-086>088-099>101-113>116-118-119-134>141-150-062000-
...SOUTHEAST GEORGIA...

CITY           SKY/WX    TMP DP  RH WIND       PRES   REMARKS
SAVANNAH ARPT  CLOUDY    78  57  48 E5        30.11F
HUNTER AAF     CLOUDY    79  64  60 E13       30.09F
FORT STEWART   CLOUDY    78  61  55 N9        30.09F
STATESBORO       N/A     78  59  51 NE6       30.13S
SYLVANIA       MOCLDY    80  58  47 E6        30.14F
CLAXTON        FAIR      79  61  53 NE5       30.12F

...CSRA...CENTRAL AND FAR SOUTHEAST GEORGIA...

CITY           SKY/WX    TMP DP  RH WIND       PRES   REMARKS
THOMSON        MOSUNNY   81  60  48 N8        30.19F
AUGUSTA-BUSH   MOSUNNY   82  56  40 NE8       30.13F
AUGUSTA-DANIEL MOSUNNY   82  52  35 E12G18    30.15F
SWAINSBORO     FAIR      82  32  16 NE7       30.14F
VIDALIA        MOSUNNY   79  57  47 E6        30.13F
EASTMAN        FAIR      82  51  34 NE8       30.15F
HAZLEHURST     FAIR      81  54  39 NE5       30.11F
ALMA           MOSUNNY   80  59  48 MISG      30.10F
WAYCROSS       CLOUDY    81  67  62 E14G21    30.11S
JESUP          CLOUDY    77  66  69 CALM      30.12F
BAXLEY         FAIR      81  61  50 E9        30.11F
BRUNSWICK      CLOUDY    77  61  57 NE13G22   30.11F
SAINT SIMONS   CLOUDY    75  64  68 NE20      30.10F

$$

SCZ027-028-034-036>038-045-046-048>050-GAZ119-141-062000-
...LAKE AND SUPPLEMENTAL COASTAL OBSERVATIONS...

STATION/POSITION TIME  TEMP    WIND        PRES    WAVE   SWELL
                       AIR SEA DIR/SP/G            HT/PER HT/PER/DIR
                 (UTC) (F)     (DEG/KT/KT) (MB)    (FT/S) (FT/S/D)
UPR LAKE MARION  NOT AVBL
WINYAH BAY       1745   72      60/ 15     1020.0
LAKE MURRAY      1800   76      70/  9/ 14 1020.7F
ACE BASIN NERRS  NOT AVBL
FORT PULASKI     1812   72 71   50/ 16/ 20 1020.7F
SAPELO ISLAND    1800   76      30/ 14     1020.0S

$$

ANZ835-935-AMZ111-154-330-350-352-354-370-450-454-472-062000-
...C-MAN AND BUOY OBSERVATIONS...

STATION/POSITION TIME  TEMP    WIND        PRES    WAVE   SWELL
                       AIR SEA DIR/SP/G            HT/PER HT/PER/DIR
                 (UTC) (F)     (DEG/KT/KT) (MB)    (FT/S) (FT/S/D)
BUOY 41004       1850   72 73   30/ 19/ 23 1018.5F   8/ 8   3/ 8
BUOY 41008       1850   71 70   30/ 16/ 19 1019.3F   5/ 8   3/110/ 8
FOLLY BEACH CMAN 1800   72      50/ 21/ 24 1020.5F
CAPERS NEARSHORE 1808   71      50/ 17/ 25 1020.6F
FRIPP NEARSHORE  1800   73      70/ 19/ 23 1019.9F


STATION/POSITION TIME  TEMP    WIND        PRES    WAVE   SWELL
                       AIR SEA DIR/SP/G            HT/PER HT/PER/DIR
                 (UTC) (F)     (DEG/KT/KT) (MB)    (FT/S) (FT/S/D)
5E ST. MARYS GA  1821      72                N/A     5/ 8
FRYING PAN BUOY  1850   73 71   70/ 17/ 19 1020.8F   6/ 7   2/150/11
BUOY 41025       1850   71 74  100/ 12/ 14 1022.7F   3/ 8   3/140/ 8
CAPE LOOKOUT NC  1800   69      70/ 10/ 11 1022.4F
BUOY 41002       1850   67 70   80/ 29/ 37 1016.5F   9/ 7   2/ 80/11
BUOY 41010       1820   71 78   30/ 16/ 17 1014.9F
ST AUGUSTINE FL  1900   71 73  360/ 18/ 20 1018.7F


$$


USA.gov is the U.S. government's official web portal to all federal, state and local government web resources and services.